Year,Month,Day,Hour,Minute,Value (Times are PST for windgust in km/hr)
2011,04,13,00,00,9.60
2011,04,13,00,01,9.60
2011,04,13,00,02,8.10
2011,04,13,00,03,8.10
2011,04,13,00,04,8.10
2011,04,13,00,05,8.10
2011,04,13,00,06,9.60
2011,04,13,00,07,8.10
2011,04,13,00,08,9.60
2011,04,13,00,09,9.60
2011,04,13,00,10,9.60
2011,04,13,00,11,6.40
2011,04,13,00,12,9.60
2011,04,13,00,13,8.10
2011,04,13,00,14,6.40
2011,04,13,00,15,3.20
2011,04,13,00,16,3.20
2011,04,13,00,17,3.20
2011,04,13,00,18,3.20
2011,04,13,00,19,3.20
2011,04,13,00,20,1.60
2011,04,13,00,23,3.20
2011,04,13,00,24,3.20
2011,04,13,00,25,1.60
2011,04,13,00,26,3.20
2011,04,13,00,27,4.80
2011,04,13,00,28,6.40
2011,04,13,00,29,4.80
2011,04,13,00,30,8.10
2011,04,13,00,31,4.80
2011,04,13,00,32,6.40
2011,04,13,00,33,6.40
2011,04,13,00,34,4.80
2011,04,13,00,35,3.20
2011,04,13,00,36,1.60
2011,04,13,00,37,1.60
2011,04,13,00,38,4.80
2011,04,13,00,39,4.80
2011,04,13,00,40,3.20
2011,04,13,00,41,3.20
2011,04,13,00,42,3.20
2011,04,13,00,43,1.60
2011,04,13,00,44,3.20
2011,04,13,00,45,3.20
2011,04,13,00,46,3.20
2011,04,13,00,47,1.60
2011,04,13,00,48,1.60
2011,04,13,00,50,4.80
2011,04,13,00,51,3.20
2011,04,13,00,52,3.20
2011,04,13,00,53,3.20
2011,04,13,00,54,3.20
2011,04,13,00,55,6.40
2011,04,13,00,56,3.20
2011,04,13,00,57,3.20
2011,04,13,00,58,3.20
2011,04,13,00,59,3.20
2011,04,13,01,00,1.60
2011,04,13,01,01,1.60
2011,04,13,01,05,3.20
2011,04,13,01,06,6.40
2011,04,13,01,07,3.20
2011,04,13,01,08,3.20
2011,04,13,01,09,6.40
2011,04,13,01,10,1.60
2011,04,13,01,11,1.60
2011,04,13,01,12,1.60
2011,04,13,01,13,1.60
2011,04,13,01,15,3.20
2011,04,13,01,16,6.40
2011,04,13,01,17,3.20
2011,04,13,01,18,3.20
2011,04,13,01,19,3.20
2011,04,13,01,20,1.60
2011,04,13,01,25,3.20
2011,04,13,01,26,3.20
2011,04,13,01,27,3.20
2011,04,13,01,28,3.20
2011,04,13,01,29,3.20
2011,04,13,01,30,3.20
2011,04,13,01,31,1.60
2011,04,13,01,32,3.20
2011,04,13,01,33,3.20
2011,04,13,01,34,3.20
2011,04,13,01,35,3.20
2011,04,13,01,36,3.20
2011,04,13,01,37,3.20
2011,04,13,01,38,3.20
2011,04,13,01,39,1.60
2011,04,13,01,40,1.60
2011,04,13,01,41,1.60
2011,04,13,01,42,3.20
2011,04,13,01,43,3.20
2011,04,13,01,44,6.40
2011,04,13,01,45,3.20
2011,04,13,01,46,1.60
2011,04,13,01,47,1.60
2011,04,13,01,48,1.60
2011,04,13,01,49,3.20
2011,04,13,01,50,3.20
2011,04,13,01,51,3.20
2011,04,13,01,52,3.20
2011,04,13,01,53,3.20
2011,04,13,01,54,3.20
2011,04,13,01,55,3.20
2011,04,13,01,56,6.40
2011,04,13,01,57,3.20
2011,04,13,01,58,6.40
2011,04,13,01,59,3.20
2011,04,13,02,00,3.20
2011,04,13,02,01,6.40
2011,04,13,02,02,3.20
2011,04,13,02,03,6.40
2011,04,13,02,04,6.40
2011,04,13,02,05,3.20
2011,04,13,02,06,3.20
2011,04,13,02,07,3.20
2011,04,13,02,08,1.60
2011,04,13,02,09,3.20
2011,04,13,02,12,3.20
2011,04,13,02,13,3.20
2011,04,13,02,14,1.60
2011,04,13,02,20,3.20
2011,04,13,02,21,3.20
2011,04,13,02,22,3.20
2011,04,13,02,23,3.20
2011,04,13,02,24,3.20
2011,04,13,02,25,3.20
2011,04,13,02,26,3.20
2011,04,13,02,27,3.20
2011,04,13,02,28,1.60
2011,04,13,02,31,1.60
2011,04,13,02,32,3.20
2011,04,13,02,33,3.20
2011,04,13,02,35,1.60
2011,04,13,02,36,1.60
2011,04,13,02,37,1.60
2011,04,13,02,38,1.60
2011,04,13,02,39,1.60
2011,04,13,02,40,1.60
2011,04,13,02,41,3.20
2011,04,13,02,42,3.20
2011,04,13,02,43,1.60
2011,04,13,02,45,1.60
2011,04,13,02,46,1.60
2011,04,13,02,47,1.60
2011,04,13,02,48,1.60
2011,04,13,02,49,3.20
2011,04,13,02,50,3.20
2011,04,13,02,51,3.20
2011,04,13,02,52,3.20
2011,04,13,02,53,3.20
2011,04,13,02,54,3.20
2011,04,13,02,55,3.20
2011,04,13,02,56,3.20
2011,04,13,02,57,3.20
2011,04,13,02,58,3.20
2011,04,13,02,59,3.20
2011,04,13,03,00,1.60
2011,04,13,03,01,1.60
2011,04,13,03,02,3.20
2011,04,13,03,03,3.20
2011,04,13,03,06,6.40
2011,04,13,03,07,3.20
2011,04,13,03,08,1.60
2011,04,13,03,09,8.10
2011,04,13,03,10,8.10
2011,04,13,03,11,3.20
2011,04,13,03,12,3.20
2011,04,13,03,13,1.60
2011,04,13,03,14,1.60
2011,04,13,03,15,3.20
2011,04,13,03,16,3.20
2011,04,13,03,19,3.20
2011,04,13,03,20,6.40
2011,04,13,03,21,6.40
2011,04,13,03,22,4.80
2011,04,13,03,23,4.80
2011,04,13,03,24,4.80
2011,04,13,03,25,3.20
2011,04,13,03,26,1.60
2011,04,13,03,28,1.60
2011,04,13,03,29,1.60
2011,04,13,03,30,3.20
2011,04,13,03,31,3.20
2011,04,13,03,32,1.60
2011,04,13,03,33,1.60
2011,04,13,03,34,4.80
2011,04,13,03,35,4.80
2011,04,13,03,36,3.20
2011,04,13,03,37,4.80
2011,04,13,03,38,4.80
2011,04,13,03,39,3.20
2011,04,13,03,40,3.20
2011,04,13,03,43,1.60
2011,04,13,03,44,1.60
2011,04,13,03,45,3.20
2011,04,13,03,46,3.20
2011,04,13,03,47,4.80
2011,04,13,03,48,4.80
2011,04,13,03,49,3.20
2011,04,13,03,50,3.20
2011,04,13,03,51,4.80
2011,04,13,03,52,3.20
2011,04,13,03,53,1.60
2011,04,13,03,55,3.20
2011,04,13,03,56,3.20
2011,04,13,03,57,4.80
2011,04,13,03,58,3.20
2011,04,13,03,59,1.60
2011,04,13,04,00,1.60
2011,04,13,04,01,1.60
2011,04,13,04,02,1.60
2011,04,13,04,03,3.20
2011,04,13,04,04,1.60
2011,04,13,04,05,1.60
2011,04,13,04,08,1.60
2011,04,13,04,09,3.20
2011,04,13,04,10,4.80
2011,04,13,04,11,4.80
2011,04,13,04,12,3.20
2011,04,13,04,13,1.60
2011,04,13,04,14,1.60
2011,04,13,04,15,1.60
2011,04,13,04,16,3.20
2011,04,13,04,17,4.80
2011,04,13,04,18,3.20
2011,04,13,04,19,3.20
2011,04,13,04,20,3.20
2011,04,13,04,21,3.20
2011,04,13,04,22,6.40
2011,04,13,04,23,3.20
2011,04,13,04,24,3.20
2011,04,13,04,26,1.60
2011,04,13,04,27,3.20
2011,04,13,04,28,3.20
2011,04,13,04,29,3.20
2011,04,13,04,30,3.20
2011,04,13,04,31,1.60
2011,04,13,04,32,1.60
2011,04,13,04,34,1.60
2011,04,13,04,35,1.60
2011,04,13,04,41,3.20
2011,04,13,04,42,3.20
2011,04,13,04,43,1.60
2011,04,13,04,48,3.20
2011,04,13,04,49,3.20
2011,04,13,04,50,1.60
2011,04,13,04,51,1.60
2011,04,13,04,52,1.60
2011,04,13,04,53,1.60
2011,04,13,04,54,1.60
2011,04,13,04,55,1.60
2011,04,13,04,56,1.60
2011,04,13,04,57,1.60
2011,04,13,05,04,1.60
2011,04,13,05,05,1.60
2011,04,13,05,06,3.20
2011,04,13,05,07,3.20
2011,04,13,05,08,3.20
2011,04,13,05,09,3.20
2011,04,13,05,10,3.20
2011,04,13,05,11,3.20
2011,04,13,05,12,3.20
2011,04,13,05,13,1.60
2011,04,13,05,14,1.60
2011,04,13,05,16,1.60
2011,04,13,05,17,3.20
2011,04,13,05,18,3.20
2011,04,13,05,19,1.60
2011,04,13,05,20,1.60
2011,04,13,05,27,1.60
2011,04,13,05,33,1.60
2011,04,13,06,01,3.20
2011,04,13,06,02,3.20
2011,04,13,06,03,3.20
2011,04,13,06,04,3.20
2011,04,13,06,05,1.60
2011,04,13,06,11,1.60
2011,04,13,06,13,3.20
2011,04,13,06,14,3.20
2011,04,13,06,15,1.60
2011,04,13,06,16,1.60
2011,04,13,06,23,1.60
2011,04,13,06,24,1.60
2011,04,13,06,58,1.60
2011,04,13,07,07,1.60
2011,04,13,07,08,1.60
2011,04,13,07,09,1.60
2011,04,13,07,10,1.60
2011,04,13,07,11,1.60
2011,04,13,07,12,1.60
2011,04,13,07,13,1.60
2011,04,13,07,14,1.60
2011,04,13,07,15,3.20
2011,04,13,07,16,3.20
2011,04,13,07,17,1.60
2011,04,13,07,38,1.60
2011,04,13,07,39,3.20
2011,04,13,07,40,1.60
2011,04,13,07,43,1.60
2011,04,13,07,44,1.60
2011,04,13,07,45,3.20
2011,04,13,07,46,1.60
2011,04,13,07,55,1.60
2011,04,13,07,56,1.60
2011,04,13,08,01,1.60
2011,04,13,08,02,1.60
2011,04,13,08,03,1.60
2011,04,13,08,04,1.60
2011,04,13,08,06,1.60
2011,04,13,08,19,1.60
2011,04,13,08,20,1.60
2011,04,13,08,22,1.60
2011,04,13,08,23,1.60
2011,04,13,08,24,1.60
2011,04,13,08,31,1.60
2011,04,13,08,32,1.60
2011,04,13,08,34,1.60
2011,04,13,08,35,1.60
2011,04,13,08,36,1.60
2011,04,13,08,37,1.60
2011,04,13,08,38,1.60
2011,04,13,08,52,1.60
2011,04,13,08,53,3.20
2011,04,13,08,54,3.20
2011,04,13,08,55,1.60
2011,04,13,09,02,1.60
2011,04,13,09,03,1.60
2011,04,13,09,04,1.60
2011,04,13,09,05,1.60
2011,04,13,09,06,3.20
2011,04,13,09,07,3.20
2011,04,13,09,08,3.20
2011,04,13,09,09,3.20
2011,04,13,09,10,1.60
2011,04,13,09,11,1.60
2011,04,13,09,12,1.60
2011,04,13,09,13,1.60
2011,04,13,09,17,1.60
2011,04,13,09,21,1.60
2011,04,13,09,22,1.60
2011,04,13,09,23,3.20
2011,04,13,09,24,3.20
2011,04,13,09,25,1.60
2011,04,13,09,26,3.20
2011,04,13,09,27,3.20
2011,04,13,09,28,1.60
2011,04,13,09,29,3.20
2011,04,13,09,30,3.20
2011,04,13,09,31,1.60
2011,04,13,09,32,3.20
2011,04,13,09,33,3.20
2011,04,13,09,34,3.20
2011,04,13,09,35,3.20
2011,04,13,09,36,3.20
2011,04,13,09,37,3.20
2011,04,13,09,38,3.20
2011,04,13,09,39,1.60
2011,04,13,09,40,3.20
2011,04,13,09,41,4.80
2011,04,13,09,42,4.80
2011,04,13,09,43,4.80
2011,04,13,09,44,6.40
2011,04,13,09,45,3.20
2011,04,13,09,46,3.20
2011,04,13,09,47,4.80
2011,04,13,09,48,4.80
2011,04,13,09,49,6.40
2011,04,13,09,50,4.80
2011,04,13,09,51,4.80
2011,04,13,09,52,4.80
2011,04,13,09,53,4.80
2011,04,13,09,54,4.80
2011,04,13,09,55,3.20
2011,04,13,09,56,4.80
2011,04,13,09,57,4.80
2011,04,13,09,58,4.80
2011,04,13,09,59,4.80
2011,04,13,10,00,4.80
2011,04,13,10,01,4.80
2011,04,13,10,02,3.20
2011,04,13,10,03,1.60
2011,04,13,10,04,1.60
2011,04,13,10,05,1.60
2011,04,13,10,06,3.20
2011,04,13,10,07,1.60
2011,04,13,10,08,1.60
2011,04,13,10,09,1.60
2011,04,13,10,11,1.60
2011,04,13,10,12,1.60
2011,04,13,10,13,1.60
2011,04,13,10,14,1.60
2011,04,13,10,15,1.60
2011,04,13,10,16,3.20
2011,04,13,10,17,1.60
2011,04,13,10,19,3.20
2011,04,13,10,20,3.20
2011,04,13,10,21,3.20
2011,04,13,10,22,1.60
2011,04,13,10,23,1.60
2011,04,13,10,24,1.60
2011,04,13,10,25,3.20
2011,04,13,10,26,3.20
2011,04,13,10,27,3.20
2011,04,13,10,28,3.20
2011,04,13,10,29,1.60
2011,04,13,10,30,3.20
2011,04,13,10,31,1.60
2011,04,13,10,32,1.60
2011,04,13,10,33,1.60
2011,04,13,10,34,1.60
2011,04,13,10,35,1.60
2011,04,13,10,37,3.20
2011,04,13,10,38,4.80
2011,04,13,10,39,4.80
2011,04,13,10,40,3.20
2011,04,13,10,41,6.40
2011,04,13,10,42,4.80
2011,04,13,10,43,3.20
2011,04,13,10,44,3.20
2011,04,13,10,45,3.20
2011,04,13,10,46,3.20
2011,04,13,10,49,1.60
2011,04,13,10,50,3.20
2011,04,13,10,51,3.20
2011,04,13,10,52,1.60
2011,04,13,10,53,4.80
2011,04,13,10,54,3.20
2011,04,13,10,55,3.20
2011,04,13,10,56,4.80
2011,04,13,10,57,4.80
2011,04,13,10,58,4.80
2011,04,13,10,59,3.20
2011,04,13,11,00,1.60
2011,04,13,11,02,1.60
2011,04,13,11,03,1.60
2011,04,13,11,04,4.80
2011,04,13,11,05,6.40
2011,04,13,11,06,6.40
2011,04,13,11,07,6.40
2011,04,13,11,08,1.60
2011,04,13,11,09,6.40
2011,04,13,11,10,6.40
2011,04,13,11,11,8.10
2011,04,13,11,12,4.80
2011,04,13,11,13,6.40
2011,04,13,11,14,6.40
2011,04,13,11,15,8.10
2011,04,13,11,16,6.40
2011,04,13,11,17,4.80
2011,04,13,11,18,4.80
2011,04,13,11,19,1.60
2011,04,13,11,20,3.20
2011,04,13,11,21,3.20
2011,04,13,11,24,1.60
2011,04,13,11,26,1.60
2011,04,13,11,29,3.20
2011,04,13,11,30,3.20
2011,04,13,11,31,3.20
2011,04,13,11,32,3.20
2011,04,13,11,33,4.80
2011,04,13,11,34,3.20
2011,04,13,11,35,3.20
2011,04,13,11,36,3.20
2011,04,13,11,37,1.60
2011,04,13,11,38,3.20
2011,04,13,11,39,3.20
2011,04,13,11,40,9.60
2011,04,13,11,41,6.40
2011,04,13,11,42,8.10
2011,04,13,11,43,3.20
2011,04,13,11,44,6.40
2011,04,13,11,45,4.80
2011,04,13,11,46,3.20
2011,04,13,11,47,4.80
2011,04,13,11,48,3.20
2011,04,13,11,49,3.20
2011,04,13,11,50,1.60
2011,04,13,11,51,3.20
2011,04,13,11,54,6.40
2011,04,13,11,55,8.10
2011,04,13,11,56,8.10
2011,04,13,11,57,6.40
2011,04,13,11,58,8.10
2011,04,13,11,59,4.80
2011,04,13,12,00,8.10
2011,04,13,12,01,6.40
2011,04,13,12,02,6.40
2011,04,13,12,03,9.60
2011,04,13,12,04,6.40
2011,04,13,12,05,6.40
2011,04,13,12,06,6.40
2011,04,13,12,07,6.40
2011,04,13,12,08,8.10
2011,04,13,12,09,9.60
2011,04,13,12,10,11.30
2011,04,13,12,11,11.30
2011,04,13,12,12,8.10
2011,04,13,12,13,9.60
2011,04,13,12,14,6.40
2011,04,13,12,15,8.10
2011,04,13,12,16,11.30
2011,04,13,12,17,9.60
2011,04,13,12,18,8.10
2011,04,13,12,19,6.40
2011,04,13,12,20,8.10
2011,04,13,12,21,11.30
2011,04,13,12,22,9.60
2011,04,13,12,23,12.90
2011,04,13,12,24,9.60
2011,04,13,12,25,11.30
2011,04,13,12,26,12.90
2011,04,13,12,27,6.40
2011,04,13,12,28,4.80
2011,04,13,12,29,4.80
2011,04,13,12,30,6.40
2011,04,13,12,31,9.60
2011,04,13,12,32,8.10
2011,04,13,12,33,8.10
2011,04,13,12,34,8.10
2011,04,13,12,35,8.10
2011,04,13,12,36,8.10
2011,04,13,12,37,9.60
2011,04,13,12,38,9.60
2011,04,13,12,39,11.30
2011,04,13,12,40,11.30
2011,04,13,12,41,11.30
2011,04,13,12,42,11.30
2011,04,13,12,43,8.10
2011,04,13,12,44,9.60
2011,04,13,12,45,8.10
2011,04,13,12,46,17.70
2011,04,13,12,47,16.10
2011,04,13,12,48,12.90
2011,04,13,12,49,11.30
2011,04,13,12,50,12.90
2011,04,13,12,51,12.90
2011,04,13,12,52,17.70
2011,04,13,12,53,17.70
2011,04,13,12,54,16.10
2011,04,13,12,55,11.30
2011,04,13,12,56,14.50
2011,04,13,12,57,14.50
2011,04,13,12,58,16.10
2011,04,13,12,59,11.30
2011,04,13,13,00,11.30
2011,04,13,13,01,16.10
2011,04,13,13,02,11.30
2011,04,13,13,03,9.60
2011,04,13,13,04,14.50
2011,04,13,13,05,9.60
2011,04,13,13,06,12.90
2011,04,13,13,07,19.30
2011,04,13,13,08,19.30
2011,04,13,13,09,19.30
2011,04,13,13,10,17.70
2011,04,13,13,11,14.50
2011,04,13,13,12,9.60
2011,04,13,13,13,9.60
2011,04,13,13,14,14.50
2011,04,13,13,15,11.30
2011,04,13,13,16,8.10
2011,04,13,13,17,8.10
2011,04,13,13,18,14.50
2011,04,13,13,19,11.30
2011,04,13,13,20,14.50
2011,04,13,13,21,8.10
2011,04,13,13,22,8.10
2011,04,13,13,23,9.60
2011,04,13,13,24,8.10
2011,04,13,13,25,9.60
2011,04,13,13,26,11.30
2011,04,13,13,27,8.10
2011,04,13,13,28,11.30
2011,04,13,13,29,16.10
2011,04,13,13,30,17.70
2011,04,13,13,31,14.50
2011,04,13,13,32,19.30
2011,04,13,13,33,22.50
2011,04,13,13,34,16.10
2011,04,13,13,35,12.90
2011,04,13,13,36,24.20
2011,04,13,13,37,20.90
2011,04,13,13,38,27.40
2011,04,13,13,39,16.10
2011,04,13,13,40,22.50
2011,04,13,13,41,16.10
2011,04,13,13,42,17.70
2011,04,13,13,43,11.30
2011,04,13,13,44,14.50
2011,04,13,13,45,14.50
2011,04,13,13,46,12.90
2011,04,13,13,47,11.30
2011,04,13,13,48,12.90
2011,04,13,13,49,14.50
2011,04,13,13,50,17.70
2011,04,13,13,51,17.70
2011,04,13,13,52,17.70
2011,04,13,13,53,19.30
2011,04,13,13,54,19.30
2011,04,13,13,55,17.70
2011,04,13,13,56,19.30
2011,04,13,13,57,20.90
2011,04,13,13,58,22.50
2011,04,13,13,59,19.30
2011,04,13,14,00,17.70
2011,04,13,14,01,25.70
2011,04,13,14,02,24.20
2011,04,13,14,03,17.70
2011,04,13,14,04,19.30
2011,04,13,14,05,24.20
2011,04,13,14,06,22.50
2011,04,13,14,07,25.70
2011,04,13,14,08,20.90
2011,04,13,14,09,20.90
2011,04,13,14,10,24.20
2011,04,13,14,11,19.30
2011,04,13,14,12,24.20
2011,04,13,14,13,19.30
2011,04,13,14,14,19.30
2011,04,13,14,15,19.30
2011,04,13,14,16,9.60
2011,04,13,14,17,16.10
2011,04,13,14,18,20.90
2011,04,13,14,19,16.10
2011,04,13,14,20,20.90
2011,04,13,14,21,29.00
2011,04,13,14,22,20.90
2011,04,13,14,23,12.90
2011,04,13,14,24,9.60
2011,04,13,14,25,12.90
2011,04,13,14,26,22.50
2011,04,13,14,27,16.10
2011,04,13,14,28,24.20
2011,04,13,14,29,30.60
2011,04,13,14,30,22.50
2011,04,13,14,31,27.40
2011,04,13,14,32,17.70
2011,04,13,14,33,20.90
2011,04,13,14,34,19.30
2011,04,13,14,35,16.10
2011,04,13,14,36,17.70
2011,04,13,14,37,17.70
2011,04,13,14,38,16.10
2011,04,13,14,39,14.50
2011,04,13,14,40,8.10
2011,04,13,14,41,9.60
2011,04,13,14,42,19.30
2011,04,13,14,43,19.30
2011,04,13,14,44,24.20
2011,04,13,14,45,16.10
2011,04,13,14,46,19.30
2011,04,13,14,47,17.70
2011,04,13,14,48,11.30
2011,04,13,14,49,19.30
2011,04,13,14,50,29.00
2011,04,13,14,51,19.30
2011,04,13,14,52,27.40
2011,04,13,14,53,20.90
2011,04,13,14,54,19.30
2011,04,13,14,55,20.90
2011,04,13,14,56,19.30
2011,04,13,14,57,17.70
2011,04,13,14,58,24.20
2011,04,13,14,59,19.30
2011,04,13,15,00,17.70
2011,04,13,15,01,22.50
2011,04,13,15,02,27.40
2011,04,13,15,03,24.20
2011,04,13,15,04,22.50
2011,04,13,15,05,16.10
2011,04,13,15,06,12.90
2011,04,13,15,07,24.20
2011,04,13,15,08,30.60
2011,04,13,15,09,17.70
2011,04,13,15,10,17.70
2011,04,13,15,11,22.50
2011,04,13,15,12,19.30
2011,04,13,15,13,16.10
2011,04,13,15,14,16.10
2011,04,13,15,15,20.90
2011,04,13,15,16,12.90
2011,04,13,15,17,24.20
2011,04,13,15,18,16.10
2011,04,13,15,19,11.30
2011,04,13,15,20,12.90
2011,04,13,15,21,14.50
2011,04,13,15,22,9.60
2011,04,13,15,23,6.40
2011,04,13,15,24,8.10
2011,04,13,15,25,14.50
2011,04,13,15,26,8.10
2011,04,13,15,27,9.60
2011,04,13,15,28,11.30
2011,04,13,15,29,9.60
2011,04,13,15,30,9.60
2011,04,13,15,31,9.60
2011,04,13,15,32,8.10
2011,04,13,15,33,8.10
2011,04,13,15,34,8.10
2011,04,13,15,35,9.60
2011,04,13,15,36,8.10
2011,04,13,15,37,3.20
2011,04,13,15,38,3.20
2011,04,13,15,39,8.10
2011,04,13,15,40,4.80
2011,04,13,15,41,12.90
2011,04,13,15,42,12.90
2011,04,13,15,43,6.40
2011,04,13,15,44,8.10
2011,04,13,15,45,4.80
2011,04,13,15,46,3.20
2011,04,13,15,47,3.20
2011,04,13,15,48,4.80
2011,04,13,15,49,11.30
2011,04,13,15,50,6.40
2011,04,13,15,51,12.90
2011,04,13,15,52,3.20
2011,04,13,15,53,3.20
2011,04,13,15,54,3.20
2011,04,13,15,55,6.40
2011,04,13,15,56,8.10
2011,04,13,15,57,12.90
2011,04,13,15,58,12.90
2011,04,13,15,59,20.90
2011,04,13,16,00,17.70
2011,04,13,16,01,19.30
2011,04,13,16,02,25.70
2011,04,13,16,03,22.50
2011,04,13,16,04,22.50
2011,04,13,16,05,17.70
2011,04,13,16,06,12.90
2011,04,13,16,07,14.50
2011,04,13,16,08,22.50
2011,04,13,16,09,16.10
2011,04,13,16,10,11.30
2011,04,13,16,11,19.30
2011,04,13,16,12,12.90
2011,04,13,16,13,20.90
2011,04,13,16,14,16.10
2011,04,13,16,15,19.30
2011,04,13,16,16,17.70
2011,04,13,16,17,20.90
2011,04,13,16,18,19.30
2011,04,13,16,19,20.90
2011,04,13,16,20,22.50
2011,04,13,16,21,20.90
2011,04,13,16,22,14.50
2011,04,13,16,23,17.70
2011,04,13,16,24,17.70
2011,04,13,16,25,12.90
2011,04,13,16,26,14.50
2011,04,13,16,27,27.40
2011,04,13,16,28,22.50
2011,04,13,16,29,19.30
2011,04,13,16,30,17.70
2011,04,13,16,31,25.70
2011,04,13,16,32,24.20
2011,04,13,16,33,24.20
2011,04,13,16,34,14.50
2011,04,13,16,35,19.30
2011,04,13,16,36,22.50
2011,04,13,16,37,19.30
2011,04,13,16,38,25.70
2011,04,13,16,39,24.20
2011,04,13,16,40,17.70
2011,04,13,16,41,20.90
2011,04,13,16,42,22.50
2011,04,13,16,43,19.30
2011,04,13,16,44,29.00
2011,04,13,16,45,24.20
2011,04,13,16,46,22.50
2011,04,13,16,47,17.70
2011,04,13,16,48,12.90
2011,04,13,16,49,9.60
2011,04,13,16,50,9.60
2011,04,13,16,51,16.10
2011,04,13,16,52,9.60
2011,04,13,16,53,12.90
2011,04,13,16,54,9.60
2011,04,13,16,55,9.60
2011,04,13,16,56,19.30
2011,04,13,16,57,14.50
2011,04,13,16,58,12.90
2011,04,13,16,59,11.30
2011,04,13,17,00,12.90
2011,04,13,17,01,9.60
2011,04,13,17,02,8.10
2011,04,13,17,03,17.70
2011,04,13,17,04,14.50
2011,04,13,17,05,11.30
2011,04,13,17,06,17.70
2011,04,13,17,07,11.30
2011,04,13,17,08,16.10
2011,04,13,17,09,12.90
2011,04,13,17,10,14.50
2011,04,13,17,11,11.30
2011,04,13,17,12,17.70
2011,04,13,17,13,12.90
2011,04,13,17,14,14.50
2011,04,13,17,15,16.10
2011,04,13,17,16,6.40
2011,04,13,17,17,8.10
2011,04,13,17,18,9.60
2011,04,13,17,19,11.30
2011,04,13,17,20,12.90
2011,04,13,17,21,9.60
2011,04,13,17,22,9.60
2011,04,13,17,23,16.10
2011,04,13,17,24,9.60
2011,04,13,17,25,8.10
2011,04,13,17,26,12.90
2011,04,13,17,27,20.90
2011,04,13,17,28,22.50
2011,04,13,17,29,19.30
2011,04,13,17,30,8.10
2011,04,13,17,31,12.90
2011,04,13,17,32,14.50
2011,04,13,17,33,12.90
2011,04,13,17,34,17.70
2011,04,13,17,35,8.10
2011,04,13,17,36,8.10
2011,04,13,17,37,11.30
2011,04,13,17,38,11.30
2011,04,13,17,39,6.40
2011,04,13,17,40,11.30
2011,04,13,17,41,16.10
2011,04,13,17,42,14.50
2011,04,13,17,43,16.10
2011,04,13,17,44,19.30
2011,04,13,17,45,16.10
2011,04,13,17,46,12.90
2011,04,13,17,47,8.10
2011,04,13,17,48,14.50
2011,04,13,17,49,16.10
2011,04,13,17,50,16.10
2011,04,13,17,51,8.10
2011,04,13,17,52,9.60
2011,04,13,17,53,6.40
2011,04,13,17,54,11.30
2011,04,13,17,55,9.60
2011,04,13,17,56,8.10
2011,04,13,17,57,8.10
2011,04,13,17,58,12.90
2011,04,13,17,59,12.90
2011,04,13,18,00,12.90
2011,04,13,18,01,12.90
2011,04,13,18,02,12.90
2011,04,13,18,03,19.30
2011,04,13,18,04,22.50
2011,04,13,18,05,16.10
2011,04,13,18,06,16.10
2011,04,13,18,07,25.70
2011,04,13,18,08,27.40
2011,04,13,18,09,19.30
2011,04,13,18,10,17.70
2011,04,13,18,11,20.90
2011,04,13,18,12,20.90
2011,04,13,18,13,20.90
2011,04,13,18,14,25.70
2011,04,13,18,15,25.70
2011,04,13,18,16,22.50
2011,04,13,18,17,24.20
2011,04,13,18,18,17.70
2011,04,13,18,19,25.70
2011,04,13,18,20,27.40
2011,04,13,18,21,25.70
2011,04,13,18,22,25.70
2011,04,13,18,23,11.30
2011,04,13,18,24,14.50
2011,04,13,18,25,16.10
2011,04,13,18,26,11.30
2011,04,13,18,27,9.60
2011,04,13,18,28,12.90
2011,04,13,18,29,17.70
2011,04,13,18,30,17.70
2011,04,13,18,31,17.70
2011,04,13,18,32,16.10
2011,04,13,18,33,12.90
2011,04,13,18,34,17.70
2011,04,13,18,35,12.90
2011,04,13,18,36,11.30
2011,04,13,18,37,9.60
2011,04,13,18,38,8.10
2011,04,13,18,39,11.30
2011,04,13,18,40,17.70
2011,04,13,18,41,17.70
2011,04,13,18,42,8.10
2011,04,13,18,43,8.10
2011,04,13,18,44,12.90
2011,04,13,18,45,12.90
2011,04,13,18,46,12.90
2011,04,13,18,47,9.60
2011,04,13,18,48,9.60
2011,04,13,18,49,9.60
2011,04,13,18,50,20.90
2011,04,13,18,51,19.30
2011,04,13,18,52,17.70
2011,04,13,18,53,16.10
2011,04,13,18,54,14.50
2011,04,13,18,55,17.70
2011,04,13,18,56,16.10
2011,04,13,18,57,12.90
2011,04,13,18,58,17.70
2011,04,13,18,59,14.50
2011,04,13,19,00,8.10
2011,04,13,19,01,17.70
2011,04,13,19,02,12.90
2011,04,13,19,03,12.90
2011,04,13,19,04,17.70
2011,04,13,19,05,11.30
2011,04,13,19,06,14.50
2011,04,13,19,07,12.90
2011,04,13,19,08,11.30
2011,04,13,19,09,8.10
2011,04,13,19,10,9.60
2011,04,13,19,11,11.30
2011,04,13,19,12,8.10
2011,04,13,19,13,8.10
2011,04,13,19,14,8.10
2011,04,13,19,15,6.40
2011,04,13,19,16,4.80
2011,04,13,19,17,6.40
2011,04,13,19,18,1.60
2011,04,13,19,19,3.20
2011,04,13,19,20,6.40
2011,04,13,19,21,3.20
2011,04,13,19,22,6.40
2011,04,13,19,23,3.20
2011,04,13,19,24,1.60
2011,04,13,19,25,3.20
2011,04,13,19,26,8.10
2011,04,13,19,27,8.10
2011,04,13,19,28,9.60
2011,04,13,19,29,11.30
2011,04,13,19,30,9.60
2011,04,13,19,31,12.90
2011,04,13,19,32,27.40
2011,04,13,19,33,24.20
2011,04,13,19,34,20.90
2011,04,13,19,35,12.90
2011,04,13,19,36,11.30
2011,04,13,19,37,14.50
2011,04,13,19,38,12.90
2011,04,13,19,39,8.10
2011,04,13,19,40,4.80
2011,04,13,19,41,6.40
2011,04,13,19,42,16.10
2011,04,13,19,43,16.10
2011,04,13,19,44,16.10
2011,04,13,19,45,27.40
2011,04,13,19,46,24.20
2011,04,13,19,47,17.70
2011,04,13,19,48,16.10
2011,04,13,19,49,14.50
2011,04,13,19,50,14.50
2011,04,13,19,51,14.50
2011,04,13,19,52,9.60
2011,04,13,19,53,11.30
2011,04,13,19,54,9.60
2011,04,13,19,55,8.10
2011,04,13,19,56,8.10
2011,04,13,19,57,6.40
2011,04,13,19,58,12.90
2011,04,13,19,59,9.60
2011,04,13,20,00,6.40
2011,04,13,20,01,11.30
2011,04,13,20,02,9.60
2011,04,13,20,03,11.30
2011,04,13,20,04,8.10
2011,04,13,20,05,8.10
2011,04,13,20,06,11.30
2011,04,13,20,07,12.90
2011,04,13,20,08,11.30
2011,04,13,20,09,16.10
2011,04,13,20,10,12.90
2011,04,13,20,11,11.30
2011,04,13,20,12,9.60
2011,04,13,20,13,11.30
2011,04,13,20,14,8.10
2011,04,13,20,15,9.60
2011,04,13,20,16,11.30
2011,04,13,20,17,11.30
2011,04,13,20,18,11.30
2011,04,13,20,19,12.90
2011,04,13,20,20,11.30
2011,04,13,20,21,12.90
2011,04,13,20,22,11.30
2011,04,13,20,23,11.30
2011,04,13,20,24,20.90
2011,04,13,20,25,11.30
2011,04,13,20,26,17.70
2011,04,13,20,27,12.90
2011,04,13,20,28,11.30
2011,04,13,20,29,9.60
2011,04,13,20,30,11.30
2011,04,13,20,31,14.50
2011,04,13,20,32,11.30
2011,04,13,20,33,12.90
2011,04,13,20,34,9.60
2011,04,13,20,35,11.30
2011,04,13,20,36,14.50
2011,04,13,20,37,20.90
2011,04,13,20,38,17.70
2011,04,13,20,39,14.50
2011,04,13,20,40,14.50
2011,04,13,20,41,8.10
2011,04,13,20,42,16.10
2011,04,13,20,43,19.30
2011,04,13,20,44,17.70
2011,04,13,20,45,17.70
2011,04,13,20,46,14.50
2011,04,13,20,47,19.30
2011,04,13,20,48,14.50
2011,04,13,20,49,17.70
2011,04,13,20,50,14.50
2011,04,13,20,51,14.50
2011,04,13,20,52,14.50
2011,04,13,20,53,11.30
2011,04,13,20,54,16.10
2011,04,13,20,55,14.50
2011,04,13,20,56,19.30
2011,04,13,20,57,20.90
2011,04,13,20,58,14.50
2011,04,13,20,59,12.90
2011,04,13,21,00,12.90
2011,04,13,21,01,11.30
2011,04,13,21,02,11.30
2011,04,13,21,03,8.10
2011,04,13,21,04,8.10
2011,04,13,21,05,8.10
2011,04,13,21,06,9.60
2011,04,13,21,07,9.60
2011,04,13,21,08,11.30
2011,04,13,21,09,11.30
2011,04,13,21,10,14.50
2011,04,13,21,11,14.50
2011,04,13,21,12,9.60
2011,04,13,21,13,14.50
2011,04,13,21,14,8.10
2011,04,13,21,15,6.40
2011,04,13,21,16,3.20
2011,04,13,21,17,3.20
2011,04,13,21,18,3.20
2011,04,13,21,19,3.20
2011,04,13,21,21,1.60
2011,04,13,21,22,3.20
2011,04,13,21,23,1.60
2011,04,13,21,24,1.60
2011,04,13,21,29,1.60
2011,04,13,21,34,3.20
2011,04,13,21,35,3.20
2011,04,13,21,36,6.40
2011,04,13,21,37,6.40
2011,04,13,21,38,6.40
2011,04,13,21,39,6.40
2011,04,13,21,40,3.20
2011,04,13,21,41,3.20
2011,04,13,21,42,3.20
2011,04,13,21,43,6.40
2011,04,13,21,44,6.40
2011,04,13,21,45,6.40
2011,04,13,21,46,6.40
2011,04,13,21,47,6.40
2011,04,13,21,48,8.10
2011,04,13,21,49,9.60
2011,04,13,21,50,9.60
2011,04,13,21,51,12.90